Weather History for KIRS - December, 2013

Change the Weather History Date:

Saturday, December 7, 2013

  Actual Average (KHAI) Record (KHAI)
Temperature  
Mean Temperature 18 °F -  
Max Temperature 23 °F 37 °F 63 °F (1951)
Min Temperature 12 °F 24 °F 2 °F (1972)
Degree Days  
Heating Degree Days 48    
Moisture  
Dew Point 12 °F    
Average Humidity 75    
Maximum Humidity 92    
Minimum Humidity 59    
Precipitation  
Precipitation 0.00 in - - ()
Sea Level Pressure  
Sea Level Pressure 30.52 in    
Wind  
Wind Speed 6 mph (NW)    
Max Wind Speed 13 mph    
Max Gust Speed 20 mph    
Visibility 10 miles    
Events Snow    
Averages and records for this station are not official NWS values.
T = Trace of Precipitation, MM = Missing Value Source: NWS Daily Summary

Daily Weather History Graph

Daily Weather History Graph

Search for Another Location

Airport or City:

Trip Planner

Search our weather history database for the weather conditions in past years. The results will help you decide how hot, cold, wet, or windy it might be!

Date:

Astronomy

Dec. 07, 2013 Rise Set
Actual Time 7:55 AM EST 5:10 PM EST
Civil Twilight 7:24 AM EST 5:42 PM EST
Nautical Twilight 6:49 AM EST 6:17 PM EST
Astronomical Twilight 6:15 AM EST 6:50 PM EST
Moon 11:37 AM EST (12/7) 10:55 PM EST (12/7)
Length of Visible Light 10h 17m
Length of Day
9h 14m
Waxing Crescent, 29% of the Moon is Illuminated
Dec 7
Waxing Crescent
Dec 9
First Quarter
Dec 17
Full
Dec 25
Last Quarter
Jan 1
New

Hourly Weather History & Observations

Time (EST) Temp. Windchill Dew Point Humidity Pressure Visibility Wind Dir Wind Speed Gust Speed Precip Events Conditions
12:14 AM 21.2 °F 16.4 °F 12.2 °F 68% 30.40 in 10.0 mi NW 3.5 mph - N/A   Overcast
12:35 AM 21.2 °F 14.9 °F 14.0 °F 74% 30.40 in 10.0 mi NW 4.6 mph - N/A Snow Light Snow
12:54 AM 21.2 °F 14.9 °F 14.0 °F 74% 30.40 in 10.0 mi NW 4.6 mph - N/A Snow Light Snow
1:14 AM 21.2 °F - 15.8 °F 80% 30.39 in 10.0 mi Calm Calm - N/A Snow Light Snow
1:35 AM 21.2 °F 13.6 °F 15.8 °F 80% 30.40 in 10.0 mi West 5.8 mph - N/A Snow Light Snow
1:54 AM 21.2 °F 13.6 °F 15.8 °F 80% 30.41 in 7.0 mi WNW 5.8 mph - N/A Snow Light Snow
2:15 AM 21.2 °F 14.9 °F 17.6 °F 86% 30.42 in 7.0 mi West 4.6 mph - N/A Snow Light Snow
2:35 AM 21.2 °F 11.7 °F 17.6 °F 86% 30.42 in 3.0 mi NW 8.1 mph - N/A Snow Light Snow
2:54 AM 21.2 °F 13.6 °F 17.6 °F 86% 30.43 in 4.0 mi WNW 5.8 mph - N/A Snow Light Snow
3:15 AM 21.2 °F 12.6 °F 17.6 °F 86% 30.43 in 10.0 mi NW 6.9 mph - N/A Snow Light Snow
3:35 AM 21.2 °F 11.7 °F 15.8 °F 80% 30.44 in 10.0 mi WNW 8.1 mph - N/A Snow Light Snow
3:54 AM 21.2 °F 12.6 °F 15.8 °F 80% 30.44 in 10.0 mi WNW 6.9 mph - N/A Snow Light Snow
4:15 AM 21.2 °F 12.6 °F 15.8 °F 80% 30.45 in 10.0 mi NW 6.9 mph - N/A Snow Light Snow
4:35 AM 19.4 °F 8.6 °F 15.8 °F 86% 30.45 in 7.0 mi NW 9.2 mph - N/A Snow Light Snow
4:54 AM 19.4 °F 8.6 °F 15.8 °F 86% 30.46 in 10.0 mi NW 9.2 mph - N/A Snow Light Snow
5:15 AM 19.4 °F 11.5 °F 15.8 °F 86% 30.46 in 10.0 mi NW 5.8 mph - N/A   Overcast
5:35 AM 19.4 °F 10.4 °F 15.8 °F 86% 30.47 in 5.0 mi NW 6.9 mph - N/A Snow Light Snow
5:54 AM 19.4 °F 14.3 °F 15.8 °F 86% 30.47 in 10.0 mi WNW 3.5 mph - N/A Snow Light Snow
6:15 AM 19.4 °F 12.8 °F 14.0 °F 80% 30.48 in 10.0 mi WNW 4.6 mph - N/A   Mostly Cloudy
6:35 AM 19.4 °F 9.5 °F 14.0 °F 80% 30.49 in 10.0 mi NW 8.1 mph - N/A Snow Light Snow
6:54 AM 19.4 °F 9.5 °F 14.0 °F 80% 30.49 in 10.0 mi NW 8.1 mph - N/A Snow Light Snow
7:15 AM 19.4 °F 12.8 °F 12.2 °F 74% 30.50 in 10.0 mi NW 4.6 mph - N/A   Overcast
7:34 AM 19.4 °F 10.4 °F 14.0 °F 80% 30.51 in 10.0 mi NNW 6.9 mph - N/A Snow Light Snow
7:55 AM 19.4 °F 7.9 °F 14.0 °F 80% 30.52 in 7.0 mi NNW 10.4 mph - N/A Snow Light Snow
8:15 AM 19.4 °F 11.5 °F 15.8 °F 86% 30.52 in 7.0 mi NNW 5.8 mph - N/A Snow Light Snow
8:34 AM 19.4 °F 11.5 °F 14.0 °F 80% 30.53 in 10.0 mi NW 5.8 mph - N/A Snow Light Snow
8:55 AM 19.4 °F 14.3 °F 14.0 °F 80% 30.54 in 10.0 mi NW 3.5 mph - N/A Snow Light Snow
9:15 AM 19.4 °F 10.4 °F 12.2 °F 74% 30.55 in 10.0 mi WNW 6.9 mph - N/A Snow Light Snow
9:34 AM 19.4 °F 8.6 °F 12.2 °F 74% 30.56 in 10.0 mi WNW 9.2 mph - N/A Snow Light Snow
9:55 AM 19.4 °F 10.4 °F 12.2 °F 74% 30.56 in 10.0 mi WNW 6.9 mph - N/A Snow Light Snow
10:14 AM 19.4 °F 8.6 °F 12.2 °F 74% 30.57 in 10.0 mi WNW 9.2 mph - N/A Snow Light Snow
10:35 AM 21.2 °F 10.1 °F 12.2 °F 68% 30.57 in 10.0 mi NW 10.4 mph - N/A Snow Light Snow
10:54 AM 19.4 °F 11.5 °F 10.4 °F 68% 30.58 in 10.0 mi NW 5.8 mph - N/A   Mostly Cloudy
11:15 AM 21.2 °F 12.6 °F 10.4 °F 63% 30.58 in 10.0 mi WNW 6.9 mph - N/A   Overcast
11:34 AM 23.0 °F 12.4 °F 12.2 °F 63% 30.58 in 10.0 mi NW 10.4 mph 16.1 mph N/A   Overcast
11:54 AM 21.2 °F 11.7 °F 12.2 °F 68% 30.58 in 10.0 mi NW 8.1 mph - N/A   Overcast
12:15 PM 21.2 °F 9.5 °F 12.2 °F 68% 30.57 in 10.0 mi NW 11.5 mph 16.1 mph N/A   Overcast
12:34 PM 21.2 °F 10.1 °F 12.2 °F 68% 30.56 in 10.0 mi NW 10.4 mph - N/A Snow Light Snow
12:55 PM 21.2 °F 11.7 °F 12.2 °F 68% 30.56 in 10.0 mi WNW 8.1 mph - N/A Snow Light Snow
1:14 PM 23.0 °F 13.9 °F 10.4 °F 59% 30.56 in 10.0 mi WNW 8.1 mph - N/A   Mostly Cloudy
1:35 PM 21.2 °F 10.9 °F 10.4 °F 63% 30.56 in 10.0 mi NNW 9.2 mph 16.1 mph N/A   Overcast
1:55 PM 21.2 °F 10.9 °F 10.4 °F 63% 30.56 in 10.0 mi WNW 9.2 mph - N/A   Overcast
2:14 PM 21.2 °F 10.1 °F 10.4 °F 63% 30.55 in 10.0 mi North 10.4 mph - N/A   Overcast
2:35 PM 21.2 °F 11.7 °F 10.4 °F 63% 30.55 in 10.0 mi NNW 8.1 mph - N/A   Mostly Cloudy
2:55 PM 21.2 °F 11.7 °F 10.4 °F 63% 30.55 in 10.0 mi NW 8.1 mph 19.6 mph N/A   Scattered Clouds
3:14 PM 21.2 °F 8.9 °F 10.4 °F 63% 30.56 in 10.0 mi NW 12.7 mph 17.3 mph N/A   Mostly Cloudy
3:35 PM 19.4 °F 9.5 °F 10.4 °F 68% 30.55 in 10.0 mi WNW 8.1 mph - N/A   Mostly Cloudy
3:55 PM 19.4 °F 9.5 °F 8.6 °F 63% 30.55 in 10.0 mi WNW 8.1 mph - N/A   Scattered Clouds
4:14 PM 19.4 °F 10.4 °F 10.4 °F 68% 30.56 in 10.0 mi WNW 6.9 mph - N/A   Clear
4:35 PM 19.4 °F 11.5 °F 10.4 °F 68% 30.56 in 10.0 mi WNW 5.8 mph - N/A   Mostly Cloudy
4:55 PM 19.4 °F 11.5 °F 10.4 °F 68% 30.56 in 10.0 mi NW 5.8 mph - N/A   Scattered Clouds
5:14 PM 19.4 °F 14.3 °F 10.4 °F 68% 30.56 in 10.0 mi NW 3.5 mph - N/A   Scattered Clouds
5:35 PM 19.4 °F 14.3 °F 10.4 °F 68% 30.56 in 10.0 mi NW 3.5 mph - N/A   Mostly Cloudy
5:55 PM 17.6 °F 12.3 °F 10.4 °F 73% 30.57 in 10.0 mi NW 3.5 mph - N/A   Mostly Cloudy
6:14 PM 17.6 °F 10.7 °F 10.4 °F 73% 30.57 in 10.0 mi NNW 4.6 mph - N/A   Overcast
6:35 PM 17.6 °F 12.3 °F 10.4 °F 73% 30.57 in 10.0 mi NW 3.5 mph - N/A   Scattered Clouds
6:55 PM 17.6 °F 12.3 °F 10.4 °F 73% 30.58 in 10.0 mi NW 3.5 mph - N/A   Clear
7:14 PM 17.6 °F 10.7 °F 10.4 °F 73% 30.58 in 10.0 mi NW 4.6 mph - N/A   Clear
7:35 PM 17.6 °F 10.7 °F 10.4 °F 73% 30.58 in 10.0 mi NNW 4.6 mph - N/A   Scattered Clouds
7:55 PM 17.6 °F 12.3 °F 10.4 °F 73% 30.58 in 10.0 mi NW 3.5 mph - N/A   Mostly Cloudy
8:14 PM 17.6 °F - 10.4 °F 73% 30.58 in 10.0 mi Calm Calm - N/A Snow Light Snow
8:35 PM 17.6 °F - 10.4 °F 73% 30.57 in 10.0 mi Calm Calm - N/A Snow Light Snow
8:55 PM 15.8 °F - 10.4 °F 79% 30.57 in 10.0 mi Calm Calm - N/A   Scattered Clouds
9:14 PM 15.8 °F - 10.4 °F 79% 30.56 in 10.0 mi Calm Calm - N/A   Clear
9:35 PM 15.8 °F - 10.4 °F 79% 30.57 in 10.0 mi Calm Calm - N/A   Clear
9:55 PM 15.8 °F - 8.6 °F 73% 30.56 in 10.0 mi Calm Calm - N/A   Clear
10:14 PM 14.0 °F - 8.6 °F 79% 30.57 in 10.0 mi Calm Calm - N/A   Clear
10:35 PM 12.2 °F - 10.4 °F 92% 30.56 in 10.0 mi Calm Calm - N/A   Clear
10:55 PM 14.0 °F - 8.6 °F 79% 30.55 in 10.0 mi Calm Calm - N/A   Clear
11:14 PM 12.2 °F 6.1 °F 8.6 °F 85% 30.55 in 10.0 mi ENE 3.5 mph - N/A   Clear
11:35 PM 12.2 °F 6.1 °F 8.6 °F 85% 30.54 in 10.0 mi East 3.5 mph - N/A   Clear
11:55 PM 12.2 °F - 8.6 °F 85% 30.54 in 10.0 mi Calm Calm - N/A   Clear